Location: Asheville, NC
(35.6000°N, 82.5500°W)
Time: 09:28:20
(UTC-04:00)

CUTE 1.7 + AOD 2 - Pass Details

Date: 14 March 2018
Orbit: 594 x 613 km, 97.5° (Epoch: 25 June)

Event Time Altitude Azimuth Distance (km) Brightness Sun altitude
Rises 07:06:30 0° 37° (NE) 2,872 ? -8.1°
Reaches altitude 10° 07:10:02 10° 68° (ENE) 1,965 ? -7.4°
Maximum altitude 07:11:45 12° 92° (E) 1,825 ? -7.1°
Drops below altitude 10° 07:13:27 10° 116° (ESE) 1,962 ? -6.7°
Sets 07:16:57 0° 147° (SSE) 2,862 ? -6.0°
